Location: Baix
(44.7118°N, 4.7648°E)
Time: 12:40:27
(UTC+00:00)

Vanguard 2 Rocket - Pass Details

Date: 26 November 2020
Orbit: 554 x 3325 km, 32.9° (Epoch: 23 January)

Event Time Altitude Azimuth Distance (km) Brightness Sun altitude
Rises 07:03:18 0° 218° (SW) 7,127 11.4 0.8°
Reaches altitude 10° 07:08:35 10° 211° (SSW) 6,236 11.2 1.6°
Maximum altitude 07:25:45 37° 153° (SSE) 4,215 11.2 4.2°
Drops below altitude 10° 07:39:48 10° 95° (E) 5,163 11.9 6.2°
Sets 07:43:37 0° 87° (E) 5,831 11.9 6.7°
